Prestwick, United Kingdom

4:41 AM BST on June 28, 2017 (GMT +0100)
Prestwick

Weather History for EGPK - May, 2013

Change the Weather History Date:

Wednesday, May 1, 2013

  Actual Average Record
Temperature  
Mean Temperature 46 °F -  
Max Temperature 51 °F 57 °F 73 °F (2011)
Min Temperature 41 °F 43 °F 32 °F (2015)
Degree Days  
Heating Degree Days 18    
Moisture  
Dew Point 39 °F    
Average Humidity 72    
Maximum Humidity 93    
Minimum Humidity 50    
Precipitation  
Precipitation 0.00 in - - ()
Sea Level Pressure  
Sea Level Pressure 30.21 in    
Wind  
Wind Speed 11 mph ()    
Max Wind Speed 17 mph    
Max Gust Speed 28 mph    
Visibility 5.9 miles    
Events Rain    
Averages and records for this station are not official NWS values.
T = Trace of Precipitation, MM = Missing Value Source: Averaged Metar Reports

Daily Weather History Graph

Daily Weather History Graph

Search for Another Location

Airport or City:

Trip Planner

Search our weather history database for the weather conditions in past years. The results will help you decide how hot, cold, wet, or windy it might be!

Date:

Astronomy

May. 01, 2013 Rise Set
Actual Time 5:36 AM BST 8:55 PM BST
Civil Twilight 4:52 AM BST 9:39 PM BST
Nautical Twilight 3:53 AM BST 10:40 PM BST
Astronomical Twilight 2:22 AM BST 12:14 AM BST
Moon 1:59 AM BST (5/1) 10:55 AM BST (5/1)
Length of Visible Light 16h 47m
Length of Day
15h 19m
Waning Gibbous, 61% of the Moon is Illuminated
May 1
Waning Gibbous
May 2
Last Quarter
May 10
New
May 18
First Quarter
May 25
Full

Hourly Weather History & Observations

Time (BST) Temp. Windchill Dew Point Humidity Pressure Visibility Wind Dir Wind Speed Gust Speed Precip Events Conditions
12:20 AM 46.4 °F 41.9 °F 35.6 °F 66% 30.21 in 6.2 mi South 9.2 mph - N/A   Scattered Clouds
12:50 AM 46.4 °F 41.5 °F 37.4 °F 71% 30.21 in 6.2 mi South 10.4 mph - N/A   Scattered Clouds
1:50 AM 44.6 °F 40.2 °F 37.4 °F 76% 30.21 in 6.2 mi South 8.1 mph - N/A   Scattered Clouds
2:50 AM 44.6 °F 39.7 °F 37.4 °F 76% 30.18 in 6.2 mi SSE 9.2 mph - N/A   Scattered Clouds
3:50 AM 42.8 °F 37.0 °F 37.4 °F 81% 30.18 in 6.2 mi South 10.4 mph - N/A   Scattered Clouds
4:50 AM 42.8 °F 39.3 °F 37.4 °F 81% 30.15 in 6.2 mi SSE 5.8 mph - N/A   Scattered Clouds
5:50 AM 44.6 °F 39.2 °F 39.2 °F 81% 30.15 in 6.2 mi South 10.4 mph - N/A   Scattered Clouds
6:50 AM 46.4 °F 40.1 °F 39.2 °F 76% 30.15 in 6.2 mi SW 15.0 mph 26.5 mph N/A   Scattered Clouds
7:20 AM 46.4 °F 41.1 °F 41.0 °F 81% 30.15 in 6.2 mi SSW 11.5 mph - N/A   Scattered Clouds
7:50 AM 46.4 °F 39.8 °F 41.0 °F 81% 30.15 in 4.3 mi SW 16.1 mph 27.6 mph N/A Rain Light Rain
8:20 AM 46.4 °F 39.8 °F 41.0 °F 81% 30.15 in 4.3 mi SW 16.1 mph - N/A   Scattered Clouds
8:50 AM 48.2 °F - 42.8 °F 82% 30.15 in 4.3 mi SSW 13.8 mph - N/A Rain Light Rain
9:20 AM 46.4 °F 39.8 °F 42.8 °F 87% 30.15 in 3.7 mi SW 16.1 mph - N/A Rain Light Rain
9:50 AM 46.4 °F 39.5 °F 44.6 °F 93% 30.15 in 3.7 mi SW 17.3 mph - N/A Rain Light Rain
10:20 AM 46.4 °F 39.8 °F 44.6 °F 93% 30.18 in 6.2 mi SW 16.1 mph - N/A   Mostly Cloudy
10:50 AM 50.0 °F - 44.6 °F 82% 30.18 in 6.2 mi SW 16.1 mph - N/A   Mostly Cloudy
11:20 AM 50.0 °F - 44.6 °F 82% 30.18 in 6.2 mi SW 17.3 mph - N/A   Scattered Clouds
11:50 AM 48.2 °F - 42.8 °F 82% 30.18 in 6.2 mi West 17.3 mph - N/A Rain Light Rain
12:20 PM 50.0 °F - 42.8 °F 76% 30.18 in 6.2 mi West 15.0 mph - N/A   Scattered Clouds
12:50 PM 50.0 °F - 42.8 °F 76% 30.18 in 6.2 mi WNW 13.8 mph - N/A Rain Light Rain Showers
1:20 PM 51.8 °F - 42.8 °F 71% 30.18 in 6.2 mi WNW 16.1 mph - N/A   Scattered Clouds
1:50 PM 51.8 °F - 41.0 °F 67% 30.21 in 6.2 mi West 15.0 mph - N/A   Scattered Clouds
2:20 PM 51.8 °F - 39.2 °F 62% 30.21 in 6.2 mi WNW 17.3 mph - N/A Rain Light Rain
2:50 PM 51.8 °F - 39.2 °F 62% 30.21 in 6.2 mi West 12.7 mph - N/A   Scattered Clouds
3:20 PM 51.8 °F - 37.4 °F 58% 30.21 in 6.2 mi West 10.4 mph - N/A   Scattered Clouds
3:50 PM 51.8 °F - 33.8 °F 50% 30.21 in 6.2 mi West 16.1 mph - N/A   Scattered Clouds
4:20 PM 51.8 °F - 35.6 °F 54% 30.24 in 6.2 mi WNW 15.0 mph - N/A   Scattered Clouds
4:50 PM 51.8 °F - 33.8 °F 50% 30.24 in 6.2 mi WNW 15.0 mph - N/A   Scattered Clouds
5:20 PM 51.8 °F - 33.8 °F 50% 30.24 in 6.2 mi WNW 12.7 mph - N/A   Scattered Clouds
5:50 PM 51.8 °F - 35.6 °F 54% 30.24 in 6.2 mi WNW 13.8 mph - N/A   Partly Cloudy
6:20 PM 51.8 °F - 35.6 °F 54% 30.24 in 6.2 mi WNW 12.7 mph - N/A   Partly Cloudy
6:50 PM 50.0 °F - 35.6 °F 58% 30.24 in 6.2 mi WNW 11.5 mph - N/A   Partly Cloudy
7:20 PM 50.0 °F - 35.6 °F 58% 30.24 in 6.2 mi WNW 9.2 mph - N/A   Partly Cloudy
7:50 PM 50.0 °F - 37.4 °F 62% 30.24 in 6.2 mi West 5.8 mph - N/A   Partly Cloudy
8:20 PM 48.2 °F - 37.4 °F 66% 30.27 in 6.2 mi West 6.9 mph - N/A   Partly Cloudy
8:50 PM 48.2 °F - 39.2 °F 71% 30.27 in 6.2 mi West 5.8 mph - N/A   Partly Cloudy
9:20 PM 46.4 °F 41.9 °F 37.4 °F 71% 30.27 in 6.2 mi West 9.2 mph - N/A   Partly Cloudy
9:50 PM 44.6 °F 41.4 °F 37.4 °F 76% 30.27 in 6.2 mi West 5.8 mph - N/A   Partly Cloudy
10:20 PM 44.6 °F 42.2 °F 37.4 °F 76% 30.27 in 6.2 mi WSW 4.6 mph - N/A   Partly Cloudy
10:50 PM 42.8 °F 38.6 °F 35.6 °F 76% 30.30 in 6.2 mi WNW 6.9 mph - N/A   Partly Cloudy
11:20 PM 42.8 °F 40.1 °F 37.4 °F 81% 30.30 in - West 4.6 mph - N/A   Clear
11:50 PM 41.0 °F 39.0 °F 35.6 °F 81% 30.30 in - SE 3.5 mph - N/A   Clear